Погода в Новомихайловском

Россия / Краснодарский край     44°15′08″N   38°50′47″E
темп.,
°C
ветер,
м/с
пор.,
м/с
влажн.,
%
обл.,
%
осадки,
мм/ч
давл.,
гПа
погр.,
м
10 мая, пн
пн1000:00+10с23615 0.0 1025153
03:00+9с236135 0.1 1025161
06:00+9ссв33638 0.1 1024141
09:00+11з23564 0.2 1024508
12:00+12з565086 0.1 10241599
15:00+13з885251 0.5 10231531
18:00+13з774912 0.1 10221255
21:00+12зюз675227 0.1 10221614
11 мая, вт
вт1100:00+12юз7857100 0.1 10201233
03:00+12юз91060100 0.4 10191477
06:00+12юз121366100 0.8 10171678
09:00+11ююз121475100 2.6 10171593
12:00+11ююз121477100 3.3 10171589
15:00+12ююз121472100 5.4 10171648
18:00+12ю101272100 2.0 10161541
21:00+12ю91169100 4.4 10171498
12 мая, ср
ср1200:00+13ю91166100 0.7 10161461
03:00+13ю81063100 0.7 10151320
06:00+13ююв6763100 0.0 1016989
09:00+13юв455689 0.0 1016682
12:00+13ююз125498 0.0 1015286
15:00+14зсз2253100 0.0 1014194
18:00+15сз33605 0.0 101399
21:00+15с34772 0.0 101262
13 мая, чт
чт1300:00+14св33820 0.0 101263
03:00+14св45745 0.0 101166
06:00+14ссв56673 0.0 101180
09:00+19ссв335864 0.0 101164
12:00+20ююв2257100 0.0 1010209
15:00+19ю1257100 0.0 1010319
18:00+19зсз227114 0.0 100930
21:00+18ссв33835 0.0 100917
14 мая, пт
пт1400:00+18св337514 0.0 100916
03:00+18св226565 0.0 101011
06:00+18св22614 0.0 101011
09:00+19ю226135 0.0 101152
12:00+20з115945 0.0 1011111
15:00+18ю22735 0.0 101083
18:00+19с1173100 0.0 100917
21:00+18з45810 0.0 101044